Time,TemperatureF,DewpointF,PressureIn,WindDirection,WindDirectionDegrees,WindSpeedMPH,WindSpeedGustMPH,Humidity,HourlyPrecipIn,Conditions,Clouds,dailyrainin,SoftwareType,DateUTC
2014-02-04 00:01:00,21.0,14.9,27.17,NNW,338,0.0,0.0,77,0.00,CLR,,0.00,WeatherDisplay:10.37,2014-02-04 06:01:00,
2014-02-04 00:06:00,21.0,14.9,27.17,NNW,338,0.0,0.0,77,0.00,CLR,,0.00,WeatherDisplay:10.37,2014-02-04 06:06:00,
2014-02-04 00:11:00,20.8,14.8,27.17,West,270,3.5,3.5,77,0.00,CLR,,0.00,WeatherDisplay:10.37,2014-02-04 06:11:00,
2014-02-04 00:16:00,20.8,14.8,27.17,East,90,1.2,0.0,77,0.00,CLR,,0.00,WeatherDisplay:10.37,2014-02-04 06:16:00,
2014-02-04 00:21:00,20.8,14.8,27.17,NW,315,1.2,1.2,77,0.00,CLR,,0.00,WeatherDisplay:10.37,2014-02-04 06:21:00,
2014-02-04 00:26:00,20.8,14.8,27.17,North,0,3.5,3.5,77,0.00,CLR,,0.00,WeatherDisplay:10.37,2014-02-04 06:26:00,
2014-02-04 00:31:00,20.8,14.8,27.17,NNW,338,1.2,2.2,77,0.00,CLR,,0.00,WeatherDisplay:10.37,2014-02-04 06:31:00,
2014-02-04 00:36:00,20.7,14.6,27.17,North,0,1.2,0.0,77,0.00,CLR,,0.00,WeatherDisplay:10.37,2014-02-04 06:36:00,
2014-02-04 00:41:00,20.7,14.6,27.17,NW,315,3.5,0.0,77,0.00,CLR,,0.00,WeatherDisplay:10.37,2014-02-04 06:41:00,
2014-02-04 00:46:00,20.7,14.9,27.17,North,0,1.2,0.0,78,0.00,CLR,,0.00,WeatherDisplay:10.37,2014-02-04 06:46:00,
2014-02-04 00:51:00,20.8,15.1,27.17,North,0,3.5,3.5,78,0.00,CLR,,0.00,WeatherDisplay:10.37,2014-02-04 06:51:00,
2014-02-04 00:56:00,20.8,15.1,27.17,NNW,338,1.2,1.6,78,0.00,CLR,,0.00,WeatherDisplay:10.37,2014-02-04 06:56:00,
2014-02-04 01:01:00,20.8,15.1,27.17,North,0,3.5,3.5,78,0.00,CLR,,0.00,WeatherDisplay:10.37,2014-02-04 07:01:00,
2014-02-04 01:06:00,20.8,15.1,27.17,North,0,1.2,0.0,78,0.00,CLR,,0.00,WeatherDisplay:10.37,2014-02-04 07:06:00,
2014-02-04 01:11:00,20.8,15.1,27.16,North,0,3.5,0.0,78,0.00,CLR,,0.00,WeatherDisplay:10.37,2014-02-04 07:11:00,
2014-02-04 01:16:00,20.8,14.8,27.16,NW,315,2.3,0.0,77,0.00,CLR,,0.00,WeatherDisplay:10.37,2014-02-04 07:16:00,
2014-02-04 01:21:00,21.0,14.9,27.16,North,0,1.2,1.2,77,0.00,CLR,,0.00,WeatherDisplay:10.37,2014-02-04 07:21:00,
2014-02-04 01:26:00,21.0,14.9,27.16,North,0,3.5,3.5,77,0.00,CLR,,0.00,WeatherDisplay:10.37,2014-02-04 07:26:00,
2014-02-04 01:31:00,21.0,14.9,27.16,NW,315,3.5,3.5,77,0.00,CLR,,0.00,WeatherDisplay:10.37,2014-02-04 07:31:00,
2014-02-04 01:36:00,21.2,14.8,27.16,NNE,22,4.6,4.6,76,0.00,CLR,,0.00,WeatherDisplay:10.37,2014-02-04 07:36:00,
2014-02-04 01:41:00,21.2,14.8,27.16,NW,315,3.5,3.5,76,0.00,CLR,,0.00,WeatherDisplay:10.37,2014-02-04 07:41:00,
2014-02-04 01:46:00,21.2,14.8,27.15,North,0,3.5,3.5,76,0.00,CLR,,0.00,WeatherDisplay:10.37,2014-02-04 07:46:00,
2014-02-04 01:51:00,21.2,14.8,27.15,NW,315,4.6,4.6,76,0.00,CLR,,0.00,WeatherDisplay:10.37,2014-02-04 07:51:00,
2014-02-04 01:56:00,21.2,14.8,27.15,NE,45,3.5,0.0,76,0.00,CLR,,0.00,WeatherDisplay:10.37,2014-02-04 07:56:00,
2014-02-04 02:01:00,21.2,14.8,27.15,North,0,3.5,3.5,76,0.00,CLR,,0.00,WeatherDisplay:10.37,2014-02-04 08:01:00,
2014-02-04 02:06:00,21.2,14.8,27.15,North,0,2.3,2.3,76,0.00,CLR,,0.00,WeatherDisplay:10.37,2014-02-04 08:06:00,
2014-02-04 02:11:00,21.2,14.8,27.15,NW,315,1.2,1.2,76,0.00,CLR,,0.00,WeatherDisplay:10.37,2014-02-04 08:11:00,
2014-02-04 02:16:00,21.4,15.0,27.15,North,0,3.5,3.5,76,0.00,CLR,,0.00,WeatherDisplay:10.37,2014-02-04 08:16:00,
2014-02-04 02:21:00,21.4,15.0,27.15,NE,45,1.2,0.0,76,0.00,CLR,,0.00,WeatherDisplay:10.37,2014-02-04 08:21:00,
2014-02-04 02:26:00,21.4,15.0,27.15,NE,45,1.2,0.0,76,0.00,CLR,,0.00,WeatherDisplay:10.37,2014-02-04 08:26:00,
2014-02-04 02:31:00,21.4,15.0,27.16,North,0,3.5,3.5,76,0.00,CLR,,0.00,WeatherDisplay:10.37,2014-02-04 08:31:00,
2014-02-04 02:36:00,21.4,15.0,27.15,South,180,2.3,2.3,76,0.00,CLR,,0.00,WeatherDisplay:10.37,2014-02-04 08:36:00,
2014-02-04 02:41:00,21.4,15.0,27.16,NW,315,1.2,0.0,76,0.00,CLR,,0.00,WeatherDisplay:10.37,2014-02-04 08:41:00,
2014-02-04 02:46:00,21.4,15.3,27.17,East,90,2.3,2.3,77,0.00,CLR,,0.00,WeatherDisplay:10.37,2014-02-04 08:46:00,
2014-02-04 02:51:00,21.4,15.3,27.16,West,270,2.2,2.2,77,0.00,CLR,,0.00,WeatherDisplay:10.37,2014-02-04 08:51:00,
2014-02-04 02:56:00,21.4,15.3,27.16,East,90,1.2,1.2,77,0.00,CLR,,0.00,WeatherDisplay:10.37,2014-02-04 08:56:00,
2014-02-04 03:01:00,21.4,15.3,27.16,NE,45,1.2,0.0,77,0.00,CLR,,0.00,WeatherDisplay:10.37,2014-02-04 09:01:00,
2014-02-04 03:06:00,21.4,15.3,27.16,NW,315,1.2,0.0,77,0.00,CLR,,0.00,WeatherDisplay:10.37,2014-02-04 09:06:00,
2014-02-04 03:11:00,21.4,15.3,27.16,SW,225,1.2,0.0,77,0.00,CLR,,0.00,WeatherDisplay:10.37,2014-02-04 09:11:00,
2014-02-04 03:16:00,21.4,15.3,27.16,NE,45,2.3,2.3,77,0.00,CLR,,0.00,WeatherDisplay:10.37,2014-02-04 09:16:00,
2014-02-04 03:21:00,21.6,15.5,27.16,South,180,2.3,2.3,77,0.00,CLR,,0.00,WeatherDisplay:10.37,2014-02-04 09:21:00,
2014-02-04 03:26:00,21.6,15.5,27.16,NW,315,1.2,1.2,77,0.00,CLR,,0.00,WeatherDisplay:10.37,2014-02-04 09:26:00,
2014-02-04 03:31:00,21.6,15.5,27.17,South,180,1.2,1.2,77,0.00,CLR,,0.00,WeatherDisplay:10.37,2014-02-04 09:31:00,
2014-02-04 03:36:00,21.6,15.5,27.16,SE,135,1.2,0.0,77,0.00,CLR,,0.00,WeatherDisplay:10.37,2014-02-04 09:36:00,
2014-02-04 03:41:00,21.6,15.5,27.16,East,90,2.3,2.3,77,0.00,CLR,,0.00,WeatherDisplay:10.37,2014-02-04 09:41:00,
2014-02-04 03:46:00,21.6,15.5,27.16,South,180,1.2,1.6,77,0.00,CLR,,0.00,WeatherDisplay:10.37,2014-02-04 09:46:00,
2014-02-04 03:51:00,21.6,15.5,27.16,NE,45,1.2,0.0,77,0.00,CLR,,0.00,WeatherDisplay:10.37,2014-02-04 09:51:00,
2014-02-04 03:56:00,21.6,15.5,27.16,East,90,2.3,2.3,77,0.00,CLR,,0.00,WeatherDisplay:10.37,2014-02-04 09:56:00,
2014-02-04 04:01:00,21.6,15.5,27.16,South,180,3.5,3.5,77,0.00,CLR,,0.00,WeatherDisplay:10.37,2014-02-04 10:01:00,
2014-02-04 04:06:00,21.6,15.5,27.15,South,180,3.5,3.5,77,0.00,CLR,,0.00,WeatherDisplay:10.37,2014-02-04 10:06:00,
2014-02-04 04:11:00,21.6,15.5,27.15,East,90,2.3,2.3,77,0.00,CLR,,0.00,WeatherDisplay:10.37,2014-02-04 10:11:00,
2014-02-04 04:16:00,21.6,15.5,27.15,East,90,2.3,2.3,77,0.00,CLR,,0.00,WeatherDisplay:10.37,2014-02-04 10:16:00,
2014-02-04 04:21:00,21.6,15.5,27.15,East,90,3.5,3.5,77,0.00,CLR,,0.00,WeatherDisplay:10.37,2014-02-04 10:21:00,
2014-02-04 04:26:00,21.6,15.5,27.15,South,180,2.3,0.0,77,0.00,CLR,,0.00,WeatherDisplay:10.37,2014-02-04 10:26:00,
2014-02-04 04:31:00,21.6,15.5,27.15,SE,135,2.3,2.3,77,0.00,CLR,,0.00,WeatherDisplay:10.37,2014-02-04 10:31:00,
2014-02-04 04:36:00,21.6,15.5,27.15,NW,315,2.3,0.0,77,0.00,CLR,,0.00,WeatherDisplay:10.37,2014-02-04 10:36:00,
2014-02-04 04:41:00,21.6,15.5,27.15,North,0,1.2,0.0,77,0.00,CLR,,0.00,WeatherDisplay:10.37,2014-02-04 10:41:00,
2014-02-04 04:46:00,21.7,15.6,27.16,North,0,2.3,0.0,77,0.00,CLR,,0.00,WeatherDisplay:10.37,2014-02-04 10:46:00,
2014-02-04 04:51:00,21.7,15.6,27.16,NW,315,2.3,2.3,77,0.00,CLR,,0.00,WeatherDisplay:10.37,2014-02-04 10:51:00,
2014-02-04 04:56:00,21.7,15.6,27.16,North,0,2.3,2.3,77,0.00,CLR,,0.00,WeatherDisplay:10.37,2014-02-04 10:56:00,
2014-02-04 05:01:00,21.7,15.6,27.16,North,0,1.2,1.6,77,0.00,CLR,,0.00,WeatherDisplay:10.37,2014-02-04 11:01:00,
2014-02-04 05:06:00,21.7,15.6,27.17,NW,315,2.3,2.3,77,0.00,CLR,,0.00,WeatherDisplay:10.37,2014-02-04 11:06:00,
2014-02-04 05:11:00,21.7,15.6,27.17,SE,135,3.5,3.5,77,0.00,CLR,,0.00,WeatherDisplay:10.37,2014-02-04 11:11:00,
2014-02-04 05:16:00,21.7,15.6,27.17,East,90,2.3,0.0,77,0.00,CLR,,0.00,WeatherDisplay:10.37,2014-02-04 11:16:00,
2014-02-04 05:21:00,21.7,15.6,27.17,North,0,3.5,3.5,77,0.00,CLR,,0.00,WeatherDisplay:10.37,2014-02-04 11:21:00,
2014-02-04 05:26:00,21.6,15.5,27.17,SE,135,2.3,2.3,77,0.00,CLR,,0.00,WeatherDisplay:10.37,2014-02-04 11:26:00,
2014-02-04 05:31:00,21.6,15.8,27.17,North,0,6.9,6.9,78,0.00,CLR,,0.00,WeatherDisplay:10.37,2014-02-04 11:31:00,
2014-02-04 05:36:00,21.6,15.8,27.17,NE,45,1.2,0.0,78,0.00,CLR,,0.00,WeatherDisplay:10.37,2014-02-04 11:36:00,
2014-02-04 05:41:00,21.4,15.6,27.17,SW,225,2.3,2.3,78,0.00,CLR,,0.00,WeatherDisplay:10.37,2014-02-04 11:41:00,
2014-02-04 05:46:00,21.4,15.6,27.17,North,0,1.2,0.0,78,0.00,CLR,,0.00,WeatherDisplay:10.37,2014-02-04 11:46:00,
2014-02-04 05:51:00,21.4,15.6,27.17,North,0,2.3,2.3,78,0.00,CLR,,0.00,WeatherDisplay:10.37,2014-02-04 11:51:00,
2014-02-04 05:56:00,21.4,15.6,27.17,East,90,3.5,0.0,78,0.00,CLR,,0.00,WeatherDisplay:10.37,2014-02-04 11:56:00,
2014-02-04 06:01:00,21.2,15.4,27.17,NNW,338,2.3,2.3,78,0.00,CLR,,0.00,WeatherDisplay:10.37,2014-02-04 12:01:00,
2014-02-04 06:06:00,21.2,15.4,27.17,NNW,338,2.3,2.3,78,0.00,CLR,,0.00,WeatherDisplay:10.37,2014-02-04 12:06:00,
2014-02-04 06:11:00,21.2,15.4,27.17,SE,135,1.2,0.0,78,0.00,CLR,,0.00,WeatherDisplay:10.37,2014-02-04 12:11:00,
2014-02-04 06:16:00,21.2,15.4,27.17,NE,45,1.2,0.0,78,0.00,CLR,,0.00,WeatherDisplay:10.37,2014-02-04 12:16:00,
2014-02-04 06:21:00,21.2,15.4,27.17,North,0,1.2,1.2,78,0.00,CLR,,0.00,WeatherDisplay:10.37,2014-02-04 12:21:00,
2014-02-04 06:26:00,21.2,15.4,27.17,East,90,1.2,0.0,78,0.00,CLR,,0.00,WeatherDisplay:10.37,2014-02-04 12:26:00,
2014-02-04 06:31:00,21.2,15.4,27.17,NE,45,2.3,0.0,78,0.00,CLR,,0.00,WeatherDisplay:10.37,2014-02-04 12:31:00,
2014-02-04 06:36:00,21.2,15.4,27.16,North,0,0.0,0.0,78,0.00,CLR,,0.00,WeatherDisplay:10.37,2014-02-04 12:36:00,
2014-02-04 06:41:00,21.2,15.4,27.16,NE,45,3.5,3.5,78,0.00,CLR,,0.00,WeatherDisplay:10.37,2014-02-04 12:41:00,
2014-02-04 06:46:00,21.2,15.4,27.16,North,0,3.5,3.5,78,0.00,CLR,,0.00,WeatherDisplay:10.37,2014-02-04 12:46:00,
2014-02-04 06:51:00,21.0,15.5,27.16,North,0,2.3,2.3,79,0.00,CLR,,0.00,WeatherDisplay:10.37,2014-02-04 12:51:00,
2014-02-04 06:56:00,21.0,15.5,27.16,NE,45,5.8,5.8,79,0.00,CLR,,0.00,WeatherDisplay:10.37,2014-02-04 12:56:00,
2014-02-04 07:01:00,21.0,15.5,27.17,North,0,5.8,5.8,79,0.00,CLR,,0.00,WeatherDisplay:10.37,2014-02-04 13:01:00,
2014-02-04 07:06:00,21.0,15.5,27.17,South,180,3.5,3.5,79,0.00,CLR,,0.00,WeatherDisplay:10.37,2014-02-04 13:06:00,
2014-02-04 07:11:00,21.0,15.2,27.17,SE,135,3.5,3.5,78,0.00,CLR,,0.00,WeatherDisplay:10.37,2014-02-04 13:11:00,
2014-02-04 07:16:00,21.0,15.2,27.17,North,0,8.1,8.1,78,0.00,CLR,,0.00,WeatherDisplay:10.37,2014-02-04 13:16:00,
2014-02-04 07:21:00,21.0,15.2,27.17,NNW,338,5.8,5.8,78,0.00,CLR,,0.00,WeatherDisplay:10.37,2014-02-04 13:21:00,
2014-02-04 07:26:00,21.0,15.2,27.17,NE,45,5.4,5.4,78,0.00,CLR,,0.00,WeatherDisplay:10.37,2014-02-04 13:26:00,
2014-02-04 07:31:00,21.0,15.2,27.17,North,0,4.6,4.6,78,0.00,CLR,,0.00,WeatherDisplay:10.37,2014-02-04 13:31:00,
2014-02-04 07:36:00,20.8,15.1,27.17,NW,315,8.1,8.1,78,0.00,CLR,,0.00,WeatherDisplay:10.37,2014-02-04 13:36:00,
2014-02-04 07:41:00,20.8,14.8,27.17,North,0,3.5,3.5,77,0.00,CLR,,0.00,WeatherDisplay:10.37,2014-02-04 13:41:00,
2014-02-04 07:46:00,20.8,14.8,27.17,NW,315,5.8,5.8,77,0.00,CLR,,0.00,WeatherDisplay:10.37,2014-02-04 13:46:00,
2014-02-04 07:51:00,20.8,14.8,27.17,North,0,4.6,4.6,77,0.00,CLR,,0.00,WeatherDisplay:10.37,2014-02-04 13:51:00,
2014-02-04 07:56:00,20.8,14.8,27.17,North,0,3.8,3.8,77,0.00,CLR,,0.00,WeatherDisplay:10.37,2014-02-04 13:56:00,
2014-02-04 08:01:00,20.8,14.8,27.17,North,0,6.9,6.9,77,0.00,CLR,,0.00,WeatherDisplay:10.37,2014-02-04 14:01:00,
2014-02-04 08:06:00,20.8,14.8,27.17,North,0,6.9,6.9,77,0.00,CLR,,0.00,WeatherDisplay:10.37,2014-02-04 14:06:00,
2014-02-04 08:11:00,20.1,14.1,27.17,North,0,3.5,3.5,77,0.00,CLR,,0.00,WeatherDisplay:10.37,2014-02-04 14:11:00,
2014-02-04 08:16:00,19.9,13.9,27.17,North,0,8.1,8.1,77,0.00,CLR,,0.00,WeatherDisplay:10.37,2014-02-04 14:16:00,
2014-02-04 08:21:00,19.8,14.0,27.17,WNW,292,6.9,6.9,78,0.00,CLR,,0.00,WeatherDisplay:10.37,2014-02-04 14:21:00,
2014-02-04 08:26:00,19.6,13.8,27.18,North,0,12.7,12.7,78,0.00,CLR,,0.00,WeatherDisplay:10.37,2014-02-04 14:26:00,
2014-02-04 08:31:00,19.2,12.3,27.17,North,0,10.4,10.4,74,0.00,CLR,,0.00,WeatherDisplay:10.37,2014-02-04 14:31:00,
2014-02-04 08:36:00,18.9,11.9,27.18,NW,315,8.1,8.1,74,0.00,CLR,,0.00,WeatherDisplay:10.37,2014-02-04 14:36:00,
2014-02-04 08:41:00,18.5,11.3,27.18,NNW,338,8.1,8.1,73,0.00,CLR,,0.00,WeatherDisplay:10.37,2014-02-04 14:41:00,
2014-02-04 08:43:00,18.5,11.3,27.18,North,0,6.9,6.9,73,0.00,CLR,,0.00,WeatherDisplay:10.37,2014-02-04 14:43:00,
2014-02-04 08:48:00,18.1,10.9,27.18,NW,315,5.8,6.9,73,0.00,CLR,,0.00,WeatherDisplay:10.37,2014-02-04 14:48:00,
2014-02-04 08:53:00,18.0,10.8,27.18,NW,315,12.7,12.7,73,0.00,CLR,,0.00,WeatherDisplay:10.37,2014-02-04 14:53:00,
2014-02-04 08:58:00,17.8,10.9,27.18,NW,315,5.8,5.8,74,0.00,CLR,,0.00,WeatherDisplay:10.37,2014-02-04 14:58:00,
2014-02-04 09:03:00,17.8,10.9,27.18,North,0,11.5,11.5,74,0.00,CLR,,0.00,WeatherDisplay:10.37,2014-02-04 15:03:00,
2014-02-04 09:08:00,17.6,10.7,27.18,North,0,5.8,5.8,74,0.00,CLR,,0.00,WeatherDisplay:10.37,2014-02-04 15:08:00,
2014-02-04 09:13:00,17.6,10.7,27.18,North,0,8.1,8.1,74,0.00,CLR,,0.00,WeatherDisplay:10.37,2014-02-04 15:13:00,
2014-02-04 09:18:00,17.6,10.7,27.19,NW,315,3.5,3.5,74,0.00,CLR,,0.00,WeatherDisplay:10.37,2014-02-04 15:18:00,
2014-02-04 09:23:00,17.6,10.7,27.18,NNE,22,8.1,8.1,74,0.00,CLR,,0.00,WeatherDisplay:10.37,2014-02-04 15:23:00,
2014-02-04 09:28:00,17.4,10.8,27.18,North,0,8.3,8.3,75,0.00,CLR,,0.00,WeatherDisplay:10.37,2014-02-04 15:28:00,
2014-02-04 09:33:00,17.4,10.8,27.19,NNE,22,3.5,3.5,75,0.00,CLR,,0.00,WeatherDisplay:10.37,2014-02-04 15:33:00,
2014-02-04 09:38:00,17.4,10.8,27.19,North,0,5.8,5.8,75,0.00,CLR,,0.00,WeatherDisplay:10.37,2014-02-04 15:38:00,
2014-02-04 09:43:00,17.4,10.8,27.19,North,0,5.8,5.8,75,0.00,CLR,,0.00,WeatherDisplay:10.37,2014-02-04 15:43:00,
2014-02-04 09:48:00,17.6,10.7,27.20,North,0,5.8,5.8,74,0.00,CLR,,0.00,WeatherDisplay:10.37,2014-02-04 15:48:00,
2014-02-04 09:53:00,17.4,10.8,27.20,North,0,6.9,6.9,75,0.00,CLR,,0.00,WeatherDisplay:10.37,2014-02-04 15:53:00,
2014-02-04 09:58:00,17.4,10.8,27.20,NW,315,8.1,8.1,75,0.00,CLR,,0.00,WeatherDisplay:10.37,2014-02-04 15:58:00,
2014-02-04 10:03:00,17.4,10.8,27.21,NW,315,3.5,3.5,75,0.00,CLR,,0.00,WeatherDisplay:10.37,2014-02-04 16:03:00,
2014-02-04 10:08:00,17.2,10.7,27.21,NW,315,3.5,3.5,75,0.00,CLR,,0.00,WeatherDisplay:10.37,2014-02-04 16:08:00,
2014-02-04 10:13:00,17.1,10.5,27.21,North,0,8.1,8.1,75,0.00,CLR,,0.00,WeatherDisplay:10.37,2014-02-04 16:13:00,
2014-02-04 10:18:00,17.1,10.5,27.21,NE,45,8.1,8.1,75,0.00,CLR,,0.00,WeatherDisplay:10.37,2014-02-04 16:18:00,
2014-02-04 10:23:00,17.1,10.5,27.21,North,0,5.8,5.8,75,0.00,CLR,,0.00,WeatherDisplay:10.37,2014-02-04 16:23:00,
2014-02-04 10:28:00,16.9,10.0,27.21,NNW,338,13.8,13.8,74,0.00,CLR,,0.00,WeatherDisplay:10.37,2014-02-04 16:28:00,
2014-02-04 10:33:00,16.9,10.0,27.21,North,0,6.9,6.9,74,0.00,CLR,,0.00,WeatherDisplay:10.37,2014-02-04 16:33:00,
2014-02-04 10:38:00,16.7,9.8,27.21,North,0,9.2,9.2,74,0.00,CLR,,0.00,WeatherDisplay:10.37,2014-02-04 16:38:00,
2014-02-04 10:43:00,16.7,9.8,27.21,NW,315,6.9,6.9,74,0.00,CLR,,0.00,WeatherDisplay:10.37,2014-02-04 16:43:00,
2014-02-04 10:48:00,16.7,9.8,27.22,NW,315,8.1,8.1,74,0.00,CLR,,0.00,WeatherDisplay:10.37,2014-02-04 16:48:00,
2014-02-04 10:53:00,16.3,9.2,27.22,North,0,10.4,10.4,73,0.00,CLR,,0.00,WeatherDisplay:10.37,2014-02-04 16:53:00,
2014-02-04 10:58:00,16.2,9.0,27.22,NNW,338,5.8,5.8,73,0.00,CLR,,0.00,WeatherDisplay:10.37,2014-02-04 16:58:00,
2014-02-04 11:03:00,15.8,8.4,27.22,WNW,292,9.2,9.2,72,0.00,CLR,,0.00,WeatherDisplay:10.37,2014-02-04 17:03:00,
2014-02-04 11:08:00,15.6,8.5,27.23,NW,315,5.8,5.8,73,0.00,CLR,,0.00,WeatherDisplay:10.37,2014-02-04 17:08:00,
2014-02-04 11:13:00,15.6,8.5,27.23,North,0,8.1,8.1,73,0.00,CLR,,0.00,WeatherDisplay:10.37,2014-02-04 17:13:00,
2014-02-04 11:18:00,15.3,7.8,27.23,NW,315,10.4,10.4,72,0.00,CLR,,0.00,WeatherDisplay:10.37,2014-02-04 17:18:00,
2014-02-04 11:23:00,15.1,7.7,27.23,NW,315,9.2,9.2,72,0.00,CLR,,0.00,WeatherDisplay:10.37,2014-02-04 17:23:00,
2014-02-04 11:28:00,15.1,7.4,27.23,North,0,10.4,10.4,71,0.00,CLR,,0.00,WeatherDisplay:10.37,2014-02-04 17:28:00,
2014-02-04 11:33:00,15.1,7.4,27.23,North,0,9.2,9.2,71,0.00,CLR,,0.00,WeatherDisplay:10.37,2014-02-04 17:33:00,
2014-02-04 11:38:00,15.1,7.4,27.23,North,0,10.4,10.4,71,0.00,CLR,,0.00,WeatherDisplay:10.37,2014-02-04 17:38:00,
2014-02-04 11:43:00,15.1,7.4,27.23,NW,315,10.4,10.4,71,0.00,CLR,,0.00,WeatherDisplay:10.37,2014-02-04 17:43:00,
2014-02-04 11:48:00,15.1,7.1,27.23,North,0,12.7,12.7,70,0.00,CLR,,0.00,WeatherDisplay:10.37,2014-02-04 17:48:00,
2014-02-04 11:53:00,15.1,7.1,27.24,North,0,6.9,6.9,70,0.00,CLR,,0.00,WeatherDisplay:10.37,2014-02-04 17:53:00,
2014-02-04 11:58:00,14.9,6.6,27.24,NNW,338,15.0,15.0,69,0.00,CLR,,0.00,WeatherDisplay:10.37,2014-02-04 17:58:00,
2014-02-04 12:03:00,14.7,6.1,27.24,NW,315,8.1,8.1,68,0.00,CLR,,0.00,WeatherDisplay:10.37,2014-02-04 18:03:00,
2014-02-04 12:08:00,14.9,6.2,27.23,North,0,8.1,8.1,68,0.00,CLR,,0.00,WeatherDisplay:10.37,2014-02-04 18:08:00,
2014-02-04 12:13:00,14.7,5.7,27.23,North,0,10.4,10.4,67,0.00,CLR,,0.00,WeatherDisplay:10.37,2014-02-04 18:13:00,
2014-02-04 12:18:00,14.7,5.7,27.23,NW,315,13.8,13.8,67,0.00,CLR,,0.00,WeatherDisplay:10.37,2014-02-04 18:18:00,
2014-02-04 12:23:00,14.7,5.7,27.23,North,0,13.8,13.8,67,0.00,CLR,,0.00,WeatherDisplay:10.37,2014-02-04 18:23:00,
2014-02-04 12:28:00,14.9,5.6,27.23,NW,315,8.1,8.1,66,0.00,CLR,,0.00,WeatherDisplay:10.37,2014-02-04 18:28:00,
2014-02-04 12:33:00,15.3,5.9,27.23,East,90,5.8,5.8,66,0.00,CLR,,0.00,WeatherDisplay:10.37,2014-02-04 18:33:00,
2014-02-04 12:38:00,15.6,6.3,27.23,North,0,11.5,11.5,66,0.00,CLR,,0.00,WeatherDisplay:10.37,2014-02-04 18:38:00,
2014-02-04 12:43:00,15.8,5.8,27.22,SE,135,8.1,8.1,64,0.00,CLR,,0.00,WeatherDisplay:10.37,2014-02-04 18:43:00,
2014-02-04 12:46:00,15.8,5.8,27.22,NW,315,12.7,12.7,64,0.00,CLR,,0.00,WeatherDisplay:10.37,2014-02-04 18:46:00,
2014-02-04 12:51:00,15.8,5.4,27.22,North,0,12.7,12.7,63,0.00,CLR,,0.00,WeatherDisplay:10.37,2014-02-04 18:51:00,
2014-02-04 12:56:00,16.0,5.2,27.22,NW,315,10.4,10.4,62,0.00,CLR,,0.00,WeatherDisplay:10.37,2014-02-04 18:56:00,
2014-02-04 13:01:00,16.7,6.3,27.22,North,0,13.8,13.8,63,0.00,CLR,,0.00,WeatherDisplay:10.37,2014-02-04 19:01:00,
2014-02-04 13:06:00,16.7,5.9,27.22,NW,315,17.3,17.3,62,0.00,CLR,,0.00,WeatherDisplay:10.37,2014-02-04 19:06:00,
2014-02-04 13:11:00,16.3,5.2,27.22,NW,315,12.7,12.7,61,0.00,CLR,,0.00,WeatherDisplay:10.37,2014-02-04 19:11:00,
2014-02-04 13:16:00,16.3,5.6,27.22,NW,315,13.8,13.8,62,0.00,CLR,,0.00,WeatherDisplay:10.37,2014-02-04 19:16:00,
2014-02-04 13:21:00,16.0,4.9,27.23,NW,315,12.7,12.7,61,0.00,CLR,,0.00,WeatherDisplay:10.37,2014-02-04 19:21:00,
2014-02-04 13:26:00,15.6,5.2,27.22,North,0,11.5,11.5,63,0.00,CLR,,0.00,WeatherDisplay:10.37,2014-02-04 19:26:00,
2014-02-04 13:31:00,15.6,5.2,27.22,SW,225,11.5,11.5,63,0.00,CLR,,0.00,WeatherDisplay:10.37,2014-02-04 19:31:00,
2014-02-04 13:36:00,15.6,5.6,27.23,NW,315,10.4,10.4,64,0.00,CLR,,0.00,WeatherDisplay:10.37,2014-02-04 19:36:00,
2014-02-04 13:41:00,15.8,5.4,27.23,NW,315,12.7,12.7,63,0.00,CLR,,0.00,WeatherDisplay:10.37,2014-02-04 19:41:00,
2014-02-04 13:46:00,15.4,5.4,27.23,NNE,22,10.4,10.4,64,0.00,CLR,,0.00,WeatherDisplay:10.37,2014-02-04 19:46:00,
2014-02-04 13:51:00,15.4,5.4,27.23,North,0,8.1,8.1,64,0.00,CLR,,0.00,WeatherDisplay:10.37,2014-02-04 19:51:00,
2014-02-04 13:56:00,15.6,5.6,27.23,NW,315,8.1,8.1,64,0.00,CLR,,0.00,WeatherDisplay:10.37,2014-02-04 19:56:00,
2014-02-04 14:01:00,15.6,5.6,27.23,WNW,292,8.1,8.1,64,0.00,CLR,,0.00,WeatherDisplay:10.37,2014-02-04 20:01:00,
2014-02-04 14:06:00,15.6,5.6,27.23,WNW,292,8.1,8.1,64,0.00,CLR,,0.00,WeatherDisplay:10.37,2014-02-04 20:06:00,
2014-02-04 14:11:00,16.3,5.9,27.23,NNW,338,6.9,6.9,63,0.00,CLR,,0.00,WeatherDisplay:10.37,2014-02-04 20:11:00,
2014-02-04 14:16:00,15.8,5.4,27.23,NW,315,11.5,11.5,63,0.00,CLR,,0.00,WeatherDisplay:10.37,2014-02-04 20:16:00,
2014-02-04 14:21:00,15.6,5.6,27.23,NNW,338,11.5,11.5,64,0.00,CLR,,0.00,WeatherDisplay:10.37,2014-02-04 20:21:00,
2014-02-04 14:26:00,14.9,4.9,27.23,North,0,11.5,11.5,64,0.00,CLR,,0.00,WeatherDisplay:10.37,2014-02-04 20:26:00,
2014-02-04 14:31:00,14.7,4.4,27.23,NNW,338,12.7,12.7,63,0.00,CLR,,0.00,WeatherDisplay:10.37,2014-02-04 20:31:00,
2014-02-04 14:36:00,14.4,4.1,27.23,North,0,17.3,17.3,63,0.00,CLR,,0.00,WeatherDisplay:10.37,2014-02-04 20:36:00,
2014-02-04 14:41:00,13.8,3.9,27.24,North,0,15.0,15.0,64,0.00,CLR,,0.00,WeatherDisplay:10.37,2014-02-04 20:41:00,
2014-02-04 14:46:00,13.5,3.5,27.23,NW,315,12.7,12.7,64,0.00,CLR,,0.00,WeatherDisplay:10.37,2014-02-04 20:46:00,
2014-02-04 14:51:00,13.3,3.4,27.24,North,0,10.4,10.4,64,0.00,CLR,,0.00,WeatherDisplay:10.37,2014-02-04 20:51:00,
2014-02-04 14:56:00,13.3,3.7,27.24,NW,315,10.4,10.4,65,0.00,CLR,,0.00,WeatherDisplay:10.37,2014-02-04 20:56:00,
2014-02-04 15:01:00,13.1,3.5,27.24,North,0,10.4,10.4,65,0.00,CLR,,0.00,WeatherDisplay:10.37,2014-02-04 21:01:00,
2014-02-04 15:06:00,12.9,3.4,27.24,North,0,13.8,13.8,65,0.00,CLR,,0.00,WeatherDisplay:10.37,2014-02-04 21:06:00,
2014-02-04 15:11:00,12.0,2.5,27.24,WNW,292,17.3,17.3,65,0.00,CLR,,0.00,WeatherDisplay:10.37,2014-02-04 21:11:00,
2014-02-04 15:16:00,11.8,2.3,27.24,NW,315,9.2,9.2,65,0.00,CLR,,0.00,WeatherDisplay:10.37,2014-02-04 21:16:00,
2014-02-04 15:21:00,12.0,2.8,27.25,WNW,292,12.7,12.7,66,0.00,CLR,,0.00,WeatherDisplay:10.37,2014-02-04 21:21:00,
2014-02-04 15:26:00,11.8,2.7,27.24,NW,315,11.5,11.5,66,0.00,CLR,,0.00,WeatherDisplay:10.37,2014-02-04 21:26:00,
2014-02-04 15:31:00,11.5,2.3,27.24,NE,45,15.0,15.0,66,0.00,CLR,,0.00,WeatherDisplay:10.37,2014-02-04 21:31:00,
2014-02-04 15:36:00,11.5,2.6,27.24,North,0,9.2,9.2,67,0.00,CLR,,0.00,WeatherDisplay:10.37,2014-02-04 21:36:00,
2014-02-04 15:41:00,11.1,2.3,27.25,North,0,11.5,11.5,67,0.00,CLR,,0.00,WeatherDisplay:10.37,2014-02-04 21:41:00,
2014-02-04 15:46:00,11.1,2.3,27.25,NNW,338,8.1,8.1,67,0.00,CLR,,0.00,WeatherDisplay:10.37,2014-02-04 21:46:00,
2014-02-04 15:51:00,10.9,2.1,27.26,NNW,338,13.8,13.8,67,0.00,CLR,,0.00,WeatherDisplay:10.37,2014-02-04 21:51:00,
2014-02-04 15:56:00,10.8,1.9,27.26,North,0,13.8,13.8,67,0.00,CLR,,0.00,WeatherDisplay:10.37,2014-02-04 21:56:00,
2014-02-04 16:01:00,10.8,1.9,27.26,NW,315,12.7,12.7,67,0.00,CLR,,0.00,WeatherDisplay:10.37,2014-02-04 22:01:00,
2014-02-04 16:06:00,10.8,1.9,27.26,NW,315,12.7,12.7,67,0.00,CLR,,0.00,WeatherDisplay:10.37,2014-02-04 22:06:00,
2014-02-04 16:11:00,10.2,0.1,27.26,NW,315,10.4,10.4,63,0.00,CLR,,0.00,WeatherDisplay:10.37,2014-02-04 22:11:00,
2014-02-04 16:16:00,10.0,-0.1,27.26,NW,315,15.0,15.0,63,0.00,CLR,,0.00,WeatherDisplay:10.37,2014-02-04 22:16:00,
2014-02-04 16:21:00,9.9,0.1,27.26,WNW,292,15.0,15.0,64,0.00,CLR,,0.00,WeatherDisplay:10.37,2014-02-04 22:21:00,
2014-02-04 16:26:00,9.9,0.1,27.26,NW,315,16.1,16.1,64,0.00,CLR,,0.00,WeatherDisplay:10.37,2014-02-04 22:26:00,
2014-02-04 16:31:00,9.9,0.1,27.27,NE,45,12.7,12.7,64,0.00,CLR,,0.00,WeatherDisplay:10.37,2014-02-04 22:31:00,
2014-02-04 16:36:00,9.7,-0.1,27.27,NE,45,23.0,23.0,64,0.00,CLR,,0.00,WeatherDisplay:10.37,2014-02-04 22:36:00,
2014-02-04 16:41:00,9.3,-0.4,27.27,NNW,338,15.0,15.0,64,0.00,CLR,,0.00,WeatherDisplay:10.37,2014-02-04 22:41:00,
2014-02-04 16:46:00,9.1,-0.6,27.28,North,0,18.4,18.4,64,0.00,CLR,,0.00,WeatherDisplay:10.37,2014-02-04 22:46:00,
2014-02-04 16:51:00,9.0,-0.8,27.28,North,0,12.7,12.7,64,0.00,CLR,,0.00,WeatherDisplay:10.37,2014-02-04 22:51:00,
2014-02-04 16:56:00,8.8,-0.9,27.28,NW,315,17.3,17.3,64,0.00,CLR,,0.00,WeatherDisplay:10.37,2014-02-04 22:56:00,
2014-02-04 17:01:00,8.6,-1.4,27.28,NW,315,16.1,16.1,63,0.00,CLR,,0.00,WeatherDisplay:10.37,2014-02-04 23:01:00,
2014-02-04 17:06:00,8.6,-1.1,27.28,NNE,15,10.4,10.7,64,0.00,CLR,,0.00,WeatherDisplay:10.37,2014-02-04 23:06:00,
2014-02-04 17:11:00,8.4,-1.3,27.28,North,0,21.9,21.9,64,0.00,CLR,,0.00,WeatherDisplay:10.37,2014-02-04 23:11:00,
2014-02-04 17:16:00,8.2,-1.4,27.29,NNE,14,16.1,16.1,64,0.00,CLR,,0.00,WeatherDisplay:10.37,2014-02-04 23:16:00,
2014-02-04 17:21:00,8.1,-1.3,27.29,West,270,15.0,15.0,65,0.00,CLR,,0.00,WeatherDisplay:10.37,2014-02-04 23:21:00,
2014-02-04 17:26:00,8.1,-1.3,27.29,NW,315,17.3,17.3,65,0.00,CLR,,0.00,WeatherDisplay:10.37,2014-02-04 23:26:00,
2014-02-04 17:31:00,7.7,-2.0,27.30,North,0,21.9,21.9,64,0.00,CLR,,0.00,WeatherDisplay:10.37,2014-02-04 23:31:00,
2014-02-04 17:36:00,7.5,-2.1,27.29,North,0,19.6,19.6,64,0.00,CLR,,0.00,WeatherDisplay:10.37,2014-02-04 23:36:00,
2014-02-04 17:41:00,7.5,-2.1,27.30,NW,315,15.0,15.0,64,0.00,CLR,,0.00,WeatherDisplay:10.37,2014-02-04 23:41:00,
2014-02-04 17:46:00,7.5,-1.8,27.30,NW,315,11.5,11.5,65,0.00,CLR,,0.00,WeatherDisplay:10.37,2014-02-04 23:46:00,
2014-02-04 17:51:00,7.5,-1.8,27.30,North,0,16.1,16.1,65,0.00,CLR,,0.00,WeatherDisplay:10.37,2014-02-04 23:51:00,
2014-02-04 17:56:00,7.3,-2.3,27.31,North,0,11.5,11.5,64,0.00,CLR,,0.00,WeatherDisplay:10.37,2014-02-04 23:56:00,
2014-02-04 18:01:00,7.3,-2.3,27.31,NW,315,11.5,11.5,64,0.00,CLR,,0.00,WeatherDisplay:10.37,2014-02-05 00:01:00,
2014-02-04 18:06:00,7.3,-2.3,27.31,NW,315,9.2,9.2,64,0.00,CLR,,0.00,WeatherDisplay:10.37,2014-02-05 00:06:00,
2014-02-04 18:11:00,7.2,-2.5,27.32,North,0,16.1,16.1,64,0.00,CLR,,0.00,WeatherDisplay:10.37,2014-02-05 00:11:00,
2014-02-04 18:16:00,7.2,-2.1,27.32,West,270,13.8,13.8,65,0.00,CLR,,0.00,WeatherDisplay:10.37,2014-02-05 00:16:00,
2014-02-04 18:21:00,7.0,-2.3,27.33,NW,315,13.8,13.8,65,0.00,CLR,,0.00,WeatherDisplay:10.37,2014-02-05 00:21:00,
2014-02-04 18:26:00,7.0,-2.6,27.33,NW,315,17.3,17.3,64,0.00,CLR,,0.00,WeatherDisplay:10.37,2014-02-05 00:26:00,
2014-02-04 18:31:00,7.0,-2.6,27.33,NNW,338,15.0,15.0,64,0.00,CLR,,0.00,WeatherDisplay:10.37,2014-02-05 00:31:00,
2014-02-04 18:36:00,6.8,-2.8,27.33,North,0,11.5,11.5,64,0.00,CLR,,0.00,WeatherDisplay:10.37,2014-02-05 00:36:00,
2014-02-04 18:41:00,6.6,-2.7,27.34,NE,45,13.8,13.8,65,0.00,CLR,,0.00,WeatherDisplay:10.37,2014-02-05 00:41:00,
2014-02-04 18:46:00,6.4,-2.8,27.34,NW,315,12.7,12.7,65,0.00,CLR,,0.00,WeatherDisplay:10.37,2014-02-05 00:46:00,
2014-02-04 18:51:00,6.4,-2.8,27.35,NW,315,11.5,11.5,65,0.00,CLR,,0.00,WeatherDisplay:10.37,2014-02-05 00:51:00,
2014-02-04 18:56:00,6.4,-2.8,27.36,NW,315,10.4,10.4,65,0.00,CLR,,0.00,WeatherDisplay:10.37,2014-02-05 00:56:00,
2014-02-04 19:01:00,6.4,-2.8,27.36,WNW,292,16.1,16.1,65,0.00,CLR,,0.00,WeatherDisplay:10.37,2014-02-05 01:01:00,
2014-02-04 19:06:00,6.4,-2.8,27.36,NW,315,11.5,11.5,65,0.00,CLR,,0.00,WeatherDisplay:10.37,2014-02-05 01:06:00,
2014-02-04 19:11:00,6.4,-2.8,27.36,North,0,5.8,5.8,65,0.00,CLR,,0.00,WeatherDisplay:10.37,2014-02-05 01:11:00,
2014-02-04 19:16:00,6.4,-2.8,27.37,North,0,11.5,11.5,65,0.00,CLR,,0.00,WeatherDisplay:10.37,2014-02-05 01:16:00,
2014-02-04 19:21:00,6.3,-3.0,27.37,NW,315,10.4,10.4,65,0.00,CLR,,0.00,WeatherDisplay:10.37,2014-02-05 01:21:00,
2014-02-04 19:26:00,6.1,-3.2,27.38,NW,315,15.0,15.0,65,0.00,CLR,,0.00,WeatherDisplay:10.37,2014-02-05 01:26:00,
2014-02-04 19:31:00,5.9,-3.7,27.39,NW,315,12.7,12.7,64,0.00,CLR,,0.00,WeatherDisplay:10.37,2014-02-05 01:31:00,
2014-02-04 19:36:00,5.7,-3.8,27.39,North,0,8.1,8.1,64,0.00,CLR,,0.00,WeatherDisplay:10.37,2014-02-05 01:36:00,
2014-02-04 19:41:00,5.5,-4.0,27.40,North,0,5.8,5.8,64,0.00,CLR,,0.00,WeatherDisplay:10.37,2014-02-05 01:41:00,
2014-02-04 19:46:00,5.5,-4.0,27.39,NNE,22,10.4,10.4,64,0.00,CLR,,0.00,WeatherDisplay:10.37,2014-02-05 01:46:00,
2014-02-04 19:51:00,5.4,-4.2,27.40,NW,315,6.9,6.9,64,0.00,CLR,,0.00,WeatherDisplay:10.37,2014-02-05 01:51:00,
2014-02-04 19:56:00,5.4,-4.2,27.40,NW,315,11.5,11.5,64,0.00,CLR,,0.00,WeatherDisplay:10.37,2014-02-05 01:56:00,
2014-02-04 20:01:00,5.4,-4.2,27.41,NNW,338,10.4,10.4,64,0.00,CLR,,0.00,WeatherDisplay:10.37,2014-02-05 02:01:00,
2014-02-04 20:06:00,5.4,-4.2,27.40,NNW,338,10.4,10.4,64,0.00,CLR,,0.00,WeatherDisplay:10.37,2014-02-05 02:06:00,
2014-02-04 20:11:00,5.0,-4.5,27.41,North,0,13.8,13.8,64,0.00,CLR,,0.00,WeatherDisplay:10.37,2014-02-05 02:11:00,
2014-02-04 20:16:00,4.6,-4.9,27.42,NW,315,10.4,10.4,64,0.00,CLR,,0.00,WeatherDisplay:10.37,2014-02-05 02:16:00,
2014-02-04 20:21:00,4.6,-4.9,27.41,NNW,338,10.4,10.4,64,0.00,CLR,,0.00,WeatherDisplay:10.37,2014-02-05 02:21:00,
2014-02-04 20:26:00,4.5,-5.0,27.42,NW,315,10.4,10.4,64,0.00,CLR,,0.00,WeatherDisplay:10.37,2014-02-05 02:26:00,
2014-02-04 20:31:00,4.3,-5.2,27.42,NW,315,12.7,12.7,64,0.00,CLR,,0.00,WeatherDisplay:10.37,2014-02-05 02:31:00,
2014-02-04 20:36:00,4.3,-5.5,27.42,North,0,15.0,15.0,63,0.00,CLR,,0.00,WeatherDisplay:10.37,2014-02-05 02:36:00,
2014-02-04 20:41:00,4.1,-6.0,27.42,North,0,10.4,10.4,62,0.00,CLR,,0.00,WeatherDisplay:10.37,2014-02-05 02:41:00,
2014-02-04 20:46:00,4.1,-6.0,27.43,WNW,292,11.5,11.5,62,0.00,CLR,,0.00,WeatherDisplay:10.37,2014-02-05 02:46:00,
2014-02-04 20:51:00,3.9,-6.2,27.43,North,0,12.7,12.7,62,0.00,CLR,,0.00,WeatherDisplay:10.37,2014-02-05 02:51:00,
2014-02-04 20:56:00,3.7,-6.7,27.43,NNE,16,10.4,10.4,61,0.00,CLR,,0.00,WeatherDisplay:10.37,2014-02-05 02:56:00,
2014-02-04 21:01:00,3.7,-6.7,27.44,NW,315,10.4,10.4,61,0.00,CLR,,0.00,WeatherDisplay:10.37,2014-02-05 03:01:00,
2014-02-04 21:06:00,3.6,-6.6,27.44,North,0,10.4,10.4,62,0.00,CLR,,0.00,WeatherDisplay:10.37,2014-02-05 03:06:00,
2014-02-04 21:11:00,3.7,-6.4,27.44,NNW,338,12.7,12.7,62,0.00,CLR,,0.00,WeatherDisplay:10.37,2014-02-05 03:11:00,
2014-02-04 21:16:00,3.6,-6.6,27.44,WSW,248,6.9,8.3,62,0.00,CLR,,0.00,WeatherDisplay:10.37,2014-02-05 03:16:00,
2014-02-04 21:21:00,3.6,-6.6,27.45,NNW,338,15.0,15.0,62,0.00,CLR,,0.00,WeatherDisplay:10.37,2014-02-05 03:21:00,
2014-02-04 21:26:00,3.4,-6.7,27.45,NW,315,10.4,10.4,62,0.00,CLR,,0.00,WeatherDisplay:10.37,2014-02-05 03:26:00,
2014-02-04 21:31:00,3.4,-6.7,27.46,NW,315,15.0,15.0,62,0.00,CLR,,0.00,WeatherDisplay:10.37,2014-02-05 03:31:00,
2014-02-04 21:36:00,3.4,-6.4,27.46,NW,315,12.7,12.7,63,0.00,CLR,,0.00,WeatherDisplay:10.37,2014-02-05 03:36:00,
2014-02-04 21:41:00,3.2,-6.6,27.46,NW,315,9.2,9.2,63,0.00,CLR,,0.00,WeatherDisplay:10.37,2014-02-05 03:41:00,
2014-02-04 21:46:00,3.0,-6.4,27.47,North,0,15.0,15.0,64,0.00,CLR,,0.00,WeatherDisplay:10.37,2014-02-05 03:46:00,
2014-02-04 21:51:00,3.0,-6.7,27.47,NW,315,6.9,6.9,63,0.00,CLR,,0.00,WeatherDisplay:10.37,2014-02-05 03:51:00,
2014-02-04 21:56:00,3.0,-6.4,27.47,WNW,292,16.1,16.1,64,0.00,CLR,,0.00,WeatherDisplay:10.37,2014-02-05 03:56:00,
2014-02-04 22:01:00,3.0,-6.4,27.47,NW,315,10.4,10.4,64,0.00,CLR,,0.00,WeatherDisplay:10.37,2014-02-05 04:01:00,
2014-02-04 22:06:00,3.0,-6.4,27.48,NNE,22,10.4,10.4,64,0.00,CLR,,0.00,WeatherDisplay:10.37,2014-02-05 04:06:00,
2014-02-04 22:11:00,2.8,-6.6,27.48,NNW,338,13.8,13.8,64,0.00,CLR,,0.00,WeatherDisplay:10.37,2014-02-05 04:11:00,
2014-02-04 22:16:00,2.8,-6.9,27.48,NNW,338,9.2,9.2,63,0.00,CLR,,0.00,WeatherDisplay:10.37,2014-02-05 04:16:00,
2014-02-04 22:21:00,2.8,-7.2,27.48,NNW,338,12.7,12.7,62,0.00,CLR,,0.00,WeatherDisplay:10.37,2014-02-05 04:21:00,
2014-02-04 22:26:00,2.8,-7.2,27.48,North,0,8.1,8.1,62,0.00,CLR,,0.00,WeatherDisplay:10.37,2014-02-05 04:26:00,
2014-02-04 22:31:00,2.8,-7.2,27.48,NW,315,8.3,8.3,62,0.00,CLR,,0.00,WeatherDisplay:10.37,2014-02-05 04:31:00,
2014-02-04 22:36:00,2.8,-7.2,27.49,WNW,292,8.1,8.1,62,0.00,CLR,,0.00,WeatherDisplay:10.37,2014-02-05 04:36:00,
2014-02-04 22:41:00,2.8,-7.2,27.49,North,0,17.3,17.3,62,0.00,CLR,,0.00,WeatherDisplay:10.37,2014-02-05 04:41:00,
2014-02-04 22:46:00,2.8,-7.2,27.50,NW,315,10.4,10.4,62,0.00,CLR,,0.00,WeatherDisplay:10.37,2014-02-05 04:46:00,
2014-02-04 22:51:00,2.7,-7.4,27.49,NW,315,8.1,8.1,62,0.00,CLR,,0.00,WeatherDisplay:10.37,2014-02-05 04:51:00,
2014-02-04 22:56:00,2.7,-7.4,27.50,NW,315,8.1,8.1,62,0.00,CLR,,0.00,WeatherDisplay:10.37,2014-02-05 04:56:00,
2014-02-04 23:01:00,2.5,-7.9,27.50,North,0,12.7,12.7,61,0.00,CLR,,0.00,WeatherDisplay:10.37,2014-02-05 05:01:00,
2014-02-04 23:06:00,2.5,-7.9,27.50,North,0,9.2,9.2,61,0.00,CLR,,0.00,WeatherDisplay:10.37,2014-02-05 05:06:00,
2014-02-04 23:11:00,2.5,-8.3,27.50,NW,315,6.9,6.9,60,0.00,CLR,,0.00,WeatherDisplay:10.37,2014-02-05 05:11:00,
2014-02-04 23:16:00,2.5,-8.3,27.50,WNW,292,10.4,10.4,60,0.00,CLR,,0.00,WeatherDisplay:10.37,2014-02-05 05:16:00,
2014-02-04 23:21:00,2.3,-8.4,27.50,NW,315,11.5,11.5,60,0.00,CLR,,0.00,WeatherDisplay:10.37,2014-02-05 05:21:00,
2014-02-04 23:26:00,2.3,-8.4,27.50,North,0,9.2,9.2,60,0.00,CLR,,0.00,WeatherDisplay:10.37,2014-02-05 05:26:00,
2014-02-04 23:31:00,2.3,-8.4,27.50,WNW,292,6.9,6.9,60,0.00,CLR,,0.00,WeatherDisplay:10.37,2014-02-05 05:31:00,
2014-02-04 23:36:00,2.1,-8.6,27.50,NNW,338,12.7,12.7,60,0.00,CLR,,0.00,WeatherDisplay:10.37,2014-02-05 05:36:00,
2014-02-04 23:41:00,2.1,-8.9,27.51,NW,315,8.1,8.3,59,0.00,CLR,,0.00,WeatherDisplay:10.37,2014-02-05 05:41:00,
2014-02-04 23:46:00,2.1,-8.9,27.50,North,0,11.5,11.5,59,0.00,CLR,,0.00,WeatherDisplay:10.37,2014-02-05 05:46:00,
2014-02-04 23:51:00,1.9,-9.1,27.50,North,0,11.5,11.5,59,0.00,CLR,,0.00,WeatherDisplay:10.37,2014-02-05 05:51:00,
2014-02-04 23:56:00,1.9,-9.1,27.51,NW,315,11.5,11.5,59,0.00,CLR,,0.00,WeatherDisplay:10.37,2014-02-05 05:56:00,